Time,TemperatureF,DewpointF,PressureIn,WindDirection,WindDirectionDegrees,WindSpeedMPH,WindSpeedGustMPH,Humidity,HourlyPrecipIn,Conditions,Clouds,dailyrainin,SoftwareType,DateUTC
2013-02-17 00:04:00,33.2,33.0,30.27,SSE,164,0.0,0.0,97,0.00,,,0.00,weatherlink.com 1.10,2013-02-17 08:04:00,
2013-02-17 00:19:00,32.4,32.0,30.27,SW,215,0.0,0.0,97,0.00,,,0.00,weatherlink.com 1.10,2013-02-17 08:19:00,
2013-02-17 00:34:00,31.9,31.0,30.28,East,94,0.0,0.0,98,0.00,,,0.00,weatherlink.com 1.10,2013-02-17 08:34:00,
2013-02-17 00:49:00,31.3,31.0,30.28,SSW,205,0.0,0.0,98,0.00,,,0.00,weatherlink.com 1.10,2013-02-17 08:49:00,
2013-02-17 01:04:00,30.7,30.0,30.28,WNW,288,0.0,0.0,98,0.00,,,0.00,weatherlink.com 1.10,2013-02-17 09:04:00,
2013-02-17 01:20:00,30.8,30.0,30.28,WNW,286,0.0,0.0,98,0.00,,,0.00,weatherlink.com 1.10,2013-02-17 09:20:00,
2013-02-17 01:34:00,30.5,30.0,30.28,WNW,285,0.0,0.0,98,0.00,,,0.00,weatherlink.com 1.10,2013-02-17 09:34:00,
2013-02-17 01:50:00,30.4,30.0,30.29,WNW,286,0.0,0.0,98,0.00,,,0.00,weatherlink.com 1.10,2013-02-17 09:50:00,
2013-02-17 02:04:00,30.5,30.0,30.29,WNW,286,0.0,0.0,98,0.00,,,0.00,weatherlink.com 1.10,2013-02-17 10:04:00,
2013-02-17 02:19:00,30.2,30.0,30.29,WNW,286,0.0,0.0,98,0.00,,,0.00,weatherlink.com 1.10,2013-02-17 10:19:00,
2013-02-17 02:34:00,29.9,29.0,30.29,WNW,287,0.0,0.0,98,0.00,,,0.00,weatherlink.com 1.10,2013-02-17 10:34:00,
2013-02-17 02:49:00,29.6,29.0,30.29,WNW,287,0.0,0.0,98,0.00,,,0.00,weatherlink.com 1.10,2013-02-17 10:49:00,
2013-02-17 03:04:00,29.7,29.0,30.29,WNW,286,0.0,0.0,98,0.00,,,0.00,weatherlink.com 1.10,2013-02-17 11:04:00,
2013-02-17 03:20:00,30.5,30.0,30.29,WNW,286,0.0,0.0,99,0.00,,,0.00,weatherlink.com 1.10,2013-02-17 11:20:00,
2013-02-17 03:34:00,31.1,31.0,30.29,WNW,287,0.0,0.0,99,0.00,,,0.00,weatherlink.com 1.10,2013-02-17 11:34:00,
2013-02-17 03:49:00,31.4,31.0,30.28,WNW,286,0.0,0.0,99,0.00,,,0.00,weatherlink.com 1.10,2013-02-17 11:49:00,
2013-02-17 04:04:00,31.4,31.0,30.28,WNW,286,0.0,0.0,99,0.00,,,0.00,weatherlink.com 1.10,2013-02-17 12:04:00,
2013-02-17 04:20:00,31.4,31.0,30.28,WNW,286,0.0,0.0,99,0.00,,,0.00,weatherlink.com 1.10,2013-02-17 12:20:00,
2013-02-17 04:34:00,31.4,31.0,30.28,WNW,286,0.0,0.0,99,0.00,,,0.00,weatherlink.com 1.10,2013-02-17 12:34:00,
2013-02-17 04:49:00,31.8,32.0,30.29,WNW,286,0.0,0.0,99,0.00,,,0.00,weatherlink.com 1.10,2013-02-17 12:49:00,
2013-02-17 05:04:00,32.1,32.0,30.28,WNW,286,0.0,0.0,99,0.01,,,0.01,weatherlink.com 1.10,2013-02-17 13:04:00,
2013-02-17 05:19:00,32.0,32.0,30.29,WNW,286,0.0,0.0,99,0.01,,,0.01,weatherlink.com 1.10,2013-02-17 13:19:00,
2013-02-17 05:34:00,32.1,32.0,30.29,WNW,286,0.0,0.0,99,0.01,,,0.01,weatherlink.com 1.10,2013-02-17 13:34:00,
2013-02-17 05:50:00,32.2,32.0,30.29,WNW,284,0.0,0.0,99,0.01,,,0.01,weatherlink.com 1.10,2013-02-17 13:50:00,
2013-02-17 06:05:00,32.2,32.0,30.29,WNW,284,0.0,0.0,99,0.00,,,0.01,weatherlink.com 1.10,2013-02-17 14:05:00,
2013-02-17 06:20:00,32.1,32.0,30.29,WNW,284,0.0,0.0,99,0.00,,,0.01,weatherlink.com 1.10,2013-02-17 14:20:00,
2013-02-17 06:35:00,32.2,32.0,30.28,WNW,284,0.0,0.0,99,0.00,,,0.01,weatherlink.com 1.10,2013-02-17 14:35:00,
2013-02-17 06:50:00,32.3,32.0,30.28,WNW,284,0.0,0.0,99,0.00,,,0.01,weatherlink.com 1.10,2013-02-17 14:50:00,
2013-02-17 07:05:00,32.3,32.0,30.27,SW,229,0.0,0.0,99,0.00,,,0.01,weatherlink.com 1.10,2013-02-17 15:05:00,
2013-02-17 07:20:00,32.2,32.0,30.28,SW,217,0.0,0.0,99,0.00,,,0.01,weatherlink.com 1.10,2013-02-17 15:20:00,
2013-02-17 07:35:00,32.5,32.0,30.28,SW,217,0.0,0.0,99,0.00,,,0.01,weatherlink.com 1.10,2013-02-17 15:35:00,
2013-02-17 07:50:00,32.6,32.0,30.29,SW,217,0.0,0.0,99,0.00,,,0.01,weatherlink.com 1.10,2013-02-17 15:50:00,
2013-02-17 08:05:00,32.7,33.0,30.29,SW,217,0.0,0.0,99,0.00,,,0.01,weatherlink.com 1.10,2013-02-17 16:05:00,
2013-02-17 08:20:00,33.3,33.0,30.29,SSW,198,0.0,0.0,99,0.00,,,0.01,weatherlink.com 1.10,2013-02-17 16:20:00,
2013-02-17 08:35:00,33.6,33.0,30.29,SSW,198,0.0,0.0,99,0.00,,,0.01,weatherlink.com 1.10,2013-02-17 16:35:00,
2013-02-17 08:50:00,34.0,34.0,30.29,SW,234,0.0,0.0,99,0.00,,,0.01,weatherlink.com 1.10,2013-02-17 16:50:00,
2013-02-17 09:05:00,35.2,35.0,30.28,WSW,241,0.0,0.0,99,0.00,,,0.01,weatherlink.com 1.10,2013-02-17 17:05:00,
2013-02-17 09:20:00,36.2,36.0,30.29,WSW,249,0.0,0.0,99,0.00,,,0.01,weatherlink.com 1.10,2013-02-17 17:20:00,
2013-02-17 09:35:00,36.9,37.0,30.29,SW,221,0.0,0.0,99,0.00,,,0.01,weatherlink.com 1.10,2013-02-17 17:35:00,
2013-02-17 09:50:00,37.6,37.0,30.29,WSW,244,0.0,0.0,99,0.00,,,0.01,weatherlink.com 1.10,2013-02-17 17:50:00,
2013-02-17 10:05:00,38.0,38.0,30.28,SE,144,0.0,0.0,99,0.00,,,0.01,weatherlink.com 1.10,2013-02-17 18:05:00,
2013-02-17 10:20:00,38.7,39.0,30.28,North,3,0.0,0.0,99,0.00,,,0.01,weatherlink.com 1.10,2013-02-17 18:20:00,
2013-02-17 10:35:00,39.7,40.0,30.28,SW,234,0.0,0.0,99,0.00,,,0.01,weatherlink.com 1.10,2013-02-17 18:35:00,
2013-02-17 10:50:00,40.1,40.0,30.28,SSW,212,0.0,0.0,98,0.00,,,0.01,weatherlink.com 1.10,2013-02-17 18:50:00,
2013-02-17 11:05:00,40.8,39.0,30.28,SW,224,0.0,0.0,94,0.00,,,0.01,weatherlink.com 1.10,2013-02-17 19:05:00,
2013-02-17 11:20:00,41.5,39.0,30.28,SW,216,0.0,0.0,92,0.00,,,0.01,weatherlink.com 1.10,2013-02-17 19:20:00,
2013-02-17 11:35:00,42.1,39.0,30.28,SSE,155,0.0,2.0,90,0.00,,,0.01,weatherlink.com 1.10,2013-02-17 19:35:00,
2013-02-17 11:51:00,42.9,40.0,30.27,NE,53,0.0,0.0,90,0.00,,,0.01,weatherlink.com 1.10,2013-02-17 19:51:00,
2013-02-17 12:05:00,42.8,39.0,30.27,SSE,158,0.0,2.0,87,0.00,,,0.01,weatherlink.com 1.10,2013-02-17 20:05:00,
2013-02-17 12:21:00,42.9,39.0,30.27,West,271,2.0,4.0,87,0.00,,,0.01,weatherlink.com 1.10,2013-02-17 20:21:00,
2013-02-17 12:35:00,39.7,38.0,30.27,NE,53,0.0,1.0,93,0.02,,,0.03,weatherlink.com 1.10,2013-02-17 20:35:00,
2013-02-17 12:50:00,40.5,39.0,30.26,NE,53,0.0,0.0,95,0.02,,,0.03,weatherlink.com 1.10,2013-02-17 20:50:00,
2013-02-17 13:05:00,41.1,39.0,30.25,ENE,63,0.0,0.0,93,0.02,,,0.03,weatherlink.com 1.10,2013-02-17 21:05:00,
2013-02-17 13:21:00,41.9,39.0,30.25,NE,52,4.0,4.0,90,0.01,,,0.03,weatherlink.com 1.10,2013-02-17 21:21:00,
2013-02-17 13:36:00,42.8,40.0,30.24,NNE,33,0.0,0.0,90,0.00,,,0.03,weatherlink.com 1.10,2013-02-17 21:36:00,
2013-02-17 13:51:00,43.2,40.0,30.24,WSW,249,0.0,0.0,88,0.00,,,0.03,weatherlink.com 1.10,2013-02-17 21:51:00,
2013-02-17 14:05:00,43.8,40.0,30.23,ENE,77,0.0,1.0,86,0.00,,,0.03,weatherlink.com 1.10,2013-02-17 22:05:00,
2013-02-17 14:20:00,44.1,40.0,30.23,ENE,77,0.0,0.0,86,0.00,,,0.03,weatherlink.com 1.10,2013-02-17 22:20:00,
2013-02-17 14:36:00,43.7,40.0,30.23,ENE,77,0.0,0.0,85,0.00,,,0.03,weatherlink.com 1.10,2013-02-17 22:36:00,
2013-02-17 16:49:00,42.1,39.0,30.20,ENE,77,0.0,0.0,90,0.00,,,0.03,weatherlink.com 1.10,2013-02-18 00:49:00,
2013-02-17 17:04:00,41.6,40.0,30.20,ENE,77,0.0,0.0,93,0.01,,,0.04,weatherlink.com 1.10,2013-02-18 01:04:00,
2013-02-17 17:19:00,41.3,40.0,30.20,ENE,77,0.0,0.0,95,0.01,,,0.04,weatherlink.com 1.10,2013-02-18 01:19:00,
2013-02-17 17:34:00,40.9,40.0,30.20,ENE,77,0.0,0.0,96,0.01,,,0.04,weatherlink.com 1.10,2013-02-18 01:34:00,
2013-02-17 17:49:00,40.5,40.0,30.19,ENE,77,0.0,0.0,96,0.01,,,0.04,weatherlink.com 1.10,2013-02-18 01:49:00,
2013-02-17 18:04:00,40.1,39.0,30.19,ENE,77,0.0,0.0,96,0.00,,,0.04,weatherlink.com 1.10,2013-02-18 02:04:00,
2013-02-17 18:20:00,39.7,38.0,30.19,WNW,297,0.0,0.0,95,0.00,,,0.04,weatherlink.com 1.10,2013-02-18 02:20:00,
2013-02-17 18:34:00,39.5,39.0,30.19,WNW,297,0.0,0.0,96,0.00,,,0.04,weatherlink.com 1.10,2013-02-18 02:34:00,
2013-02-17 18:49:00,39.1,38.0,30.19,WNW,297,0.0,0.0,97,0.00,,,0.04,weatherlink.com 1.10,2013-02-18 02:49:00,
2013-02-17 19:05:00,38.8,38.0,30.19,WNW,297,0.0,0.0,97,0.00,,,0.04,weatherlink.com 1.10,2013-02-18 03:05:00,
2013-02-17 19:20:00,38.7,38.0,30.19,WNW,297,0.0,0.0,97,0.00,,,0.04,weatherlink.com 1.10,2013-02-18 03:20:00,
2013-02-17 19:35:00,38.4,38.0,30.18,WNW,297,0.0,0.0,98,0.00,,,0.04,weatherlink.com 1.10,2013-02-18 03:35:00,
2013-02-17 19:51:00,38.1,38.0,30.18,WNW,297,0.0,0.0,98,0.00,,,0.04,weatherlink.com 1.10,2013-02-18 03:51:00,
2013-02-17 20:05:00,37.9,37.0,30.18,WNW,296,0.0,0.0,98,0.00,,,0.04,weatherlink.com 1.10,2013-02-18 04:05:00,
2013-02-17 20:20:00,37.6,37.0,30.18,WNW,296,0.0,0.0,98,0.00,,,0.04,weatherlink.com 1.10,2013-02-18 04:20:00,
2013-02-17 20:35:00,37.4,37.0,30.18,WNW,296,0.0,0.0,98,0.00,,,0.04,weatherlink.com 1.10,2013-02-18 04:35:00,
2013-02-17 20:50:00,37.2,37.0,30.18,WNW,296,0.0,0.0,98,0.00,,,0.04,weatherlink.com 1.10,2013-02-18 04:50:00,
2013-02-17 21:05:00,37.1,37.0,30.18,WNW,296,0.0,0.0,98,0.00,,,0.04,weatherlink.com 1.10,2013-02-18 05:05:00,
2013-02-17 21:20:00,36.9,36.0,30.17,WNW,296,0.0,0.0,98,0.00,,,0.04,weatherlink.com 1.10,2013-02-18 05:20:00,
2013-02-17 21:35:00,36.9,36.0,30.17,WNW,296,0.0,0.0,98,0.00,,,0.04,weatherlink.com 1.10,2013-02-18 05:35:00,
2013-02-17 21:50:00,36.6,36.0,30.16,WNW,296,0.0,0.0,98,0.00,,,0.04,weatherlink.com 1.10,2013-02-18 05:50:00,
2013-02-17 22:05:00,36.6,36.0,30.16,WNW,296,0.0,0.0,98,0.00,,,0.04,weatherlink.com 1.10,2013-02-18 06:05:00,
2013-02-17 22:20:00,36.4,36.0,30.16,WNW,296,0.0,0.0,98,0.00,,,0.04,weatherlink.com 1.10,2013-02-18 06:20:00,
2013-02-17 22:35:00,36.3,36.0,30.15,WNW,296,0.0,0.0,98,0.00,,,0.04,weatherlink.com 1.10,2013-02-18 06:35:00,
2013-02-17 22:50:00,36.1,36.0,30.15,WNW,296,0.0,0.0,98,0.00,,,0.04,weatherlink.com 1.10,2013-02-18 06:50:00,
2013-02-17 23:05:00,35.7,35.0,30.14,WNW,296,0.0,0.0,98,0.00,,,0.04,weatherlink.com 1.10,2013-02-18 07:05:00,
2013-02-17 23:20:00,35.3,35.0,30.14,WNW,296,0.0,0.0,98,0.00,,,0.04,weatherlink.com 1.10,2013-02-18 07:20:00,
2013-02-17 23:35:00,34.9,34.0,30.13,WNW,296,0.0,0.0,98,0.00,,,0.04,weatherlink.com 1.10,2013-02-18 07:35:00,
2013-02-17 23:50:00,34.6,34.0,30.13,WNW,296,0.0,0.0,98,0.00,,,0.04,weatherlink.com 1.10,2013-02-18 07:50:00,